[[{"header":{"parameterUnit":"m.s-1","parameterCategory":1,"la1":30.2991,"la2":30.254,"lo1":-89.0895,"lo2":-89.0444,"dy":0.0017,"dx":0.0017,"nx":28,"ny":28,"refTime":"2025-06-20T09:00:00:Z","depth":0,"parameterNumber":2,"parameterNumberName":"U-component_of_WINDS"},"data":[0,0,0,0,0,0,0,0,0,0,0,0,0,0,0,0,0,0,0,0,0,0,0,0,0,0,0,0,0,0,0,0,0,0,0,0,0,0,0,0,0,0,0,0,0,0,0,0,0,0,0,0,0,0,0,0,0,0,2.7409,2.741,0,2.7438,2.7438,2.7439,2.7367,2.7365,2.7363,2.7361,2.7392,2.7395,2.7397,0,0,0,0,0,0,0,0,0,0,0,0,0,2.7293,2.7295,2.7409,2.741,2.741,2.7438,2.7438,2.7439,2.7368,2.7365,2.7362,2.736,2.7391,2.7394,2.7398,0,0,0,0,0,0,0,0,0,0,0,0,0,2.7335,2.7296,2.7409,2.7378,2.7375,2.7438,2.7438,2.7439,2.7368,2.7365,2.7361,2.7358,2.739,2.7394,2.7398,2.7493,0,0,2.7412,2.7414,0,0,0,0,0,0,0,0,2.7332,2.7339,2.7382,2.738,2.7377,2.7395,2.7409,2.7457,2.7369,2.7371,2.736,2.7357,2.7396,2.74,2.7412,2.7495,2.7496,2.7412,2.7415,2.7417,2.7418,0,0,0,0,0,0,0,2.733,2.7337,2.7421,2.7383,2.738,2.7362,2.7364,2.7417,2.7402,2.737,2.7365,2.737,2.7394,2.7408,2.7413,2.7496,2.7412,2.7416,2.7419,2.742,2.7654,2.7658,0,0,0,0,0,0,2.7331,2.7335,2.742,2.7421,2.7346,2.7367,2.737,2.7393,2.7401,2.7399,2.7373,2.7366,2.7402,2.7408,2.7413,2.7522,2.7417,2.7421,2.7423,2.7651,2.7655,2.7659,0,0,0,0,0,0,2.7328,2.7339,2.7418,2.7377,2.7386,2.7373,2.74,2.7395,2.741,2.7403,2.74,2.739,2.74,2.7407,2.7473,2.7522,2.7423,2.7427,2.7646,2.7652,2.7657,2.7742,0,0,0,0,0,0,2.7325,2.7338,2.7374,2.7378,2.7388,2.7478,2.7403,2.7398,2.7417,2.7409,2.7418,2.7417,2.7398,2.7467,2.7477,2.7526,2.743,2.7642,2.7649,2.7655,2.7735,2.775,2.7762,0,0,0,0,0,2.7321,2.7398,2.7377,2.7387,2.7433,2.7481,2.7486,2.7463,2.7422,2.7457,2.7452,2.7416,2.7516,2.7474,2.7485,2.7537,2.7639,2.7647,2.7655,2.7728,2.7747,2.7762,0,0,0,0,0,0,2.7402,2.7398,2.7374,2.7455,2.7468,2.7469,2.7513,2.7483,2.751,2.7501,2.7471,2.7474,2.7544,2.7548,2.7501,2.7627,2.757,2.7581,2.7622,2.7639,2.7653,2.765,2.7434,0,0,0,0,0,2.7429,2.7468,2.7463,2.7534,2.7542,2.7527,2.7547,2.7527,2.754,2.7546,2.7546,2.756,2.7594,2.7617,2.7649,2.7735,2.7735,2.7776,2.779,2.7801,2.781,2.7853,2.787,2.7685,2.7685,2.7685,0,0,2.7485,2.7488,2.7515,2.755,2.7559,2.7599,2.7532,2.7578,2.7607,2.7553,2.7614,2.7615,2.7629,2.7704,2.7738,2.7709,2.7861,2.7812,2.7821,2.7823,2.7863,2.7881,2.7896,2.7691,2.769,2.7689,0,0,2.7608,2.7615,2.7673,2.7683,2.7695,2.7684,2.7698,2.7703,2.77,2.7761,2.772,2.7755,2.7815,2.7826,2.7839,2.7963,2.793,2.7975,2.8046,2.8088,2.8103,2.8116,2.8157,2.8173,2.7984,2.7984,2.7985,0,2.7676,2.7734,2.7708,2.7755,2.7771,2.7723,2.7781,2.7792,2.7815,2.7827,2.7795,2.7867,2.7873,2.7949,2.7979,2.7993,2.8006,2.7973,2.8103,2.8116,2.8127,2.8166,2.8182,2.7989,2.7989,2.7988,2.7988,0,2.7816,2.7858,2.7904,2.7925,2.7946,2.8,2.798,2.8005,2.7984,2.7976,2.8037,2.8043,2.8072,2.809,2.807,2.8162,2.8144,2.8108,2.8049,2.815,2.8186,2.8201,2.7997,2.7995,2.7993,2.7992,0,0,2.799,2.7994,2.8011,2.8019,2.8029,2.806,2.8111,2.8139,2.8159,2.8177,2.8217,2.8268,2.8234,2.8249,2.8231,2.8268,2.8362,2.8227,2.8227,2.8249,2.8461,2.8486,2.8504,2.8341,2.8344,2.8346,2.8459,0,2.8108,2.8193,2.817,2.8255,2.8291,2.8245,2.8288,2.8299,2.8293,2.8323,2.8316,2.8352,2.8306,2.8314,2.8349,2.8344,2.8404,2.8336,2.8377,2.8379,2.8372,2.8523,2.855,2.8656,2.8473,2.8476,2.8477,0,2.8257,2.8278,2.8366,2.8367,2.8382,2.8421,2.8443,2.8473,2.8484,2.8477,2.8493,2.8466,2.8514,2.8457,2.8523,2.8476,2.8492,2.8492,2.8495,2.8496,2.8432,2.8525,2.8689,2.8704,2.85,2.8498,2.8496,0,2.8371,2.8422,2.848,2.8488,2.8492,2.852,2.8523,2.853,2.8548,2.8568,2.8579,2.8606,2.8619,2.864,2.862,2.8581,2.8688,2.863,2.8682,2.8682,2.8705,2.8703,2.8871,2.872,2.872,2.8719,2.8719,0,2.8503,2.8558,2.853,2.8566,2.8625,2.8598,2.8658,2.8656,2.8662,2.8696,2.866,2.8692,2.8665,2.8696,2.8681,2.8736,2.8743,2.8738,2.8732,2.8739,2.874,2.8747,2.8738,2.8724,2.8723,2.8722,2.8721,0,2.864,2.8623,2.8683,2.8681,2.8682,2.8726,2.8724,2.8756,2.8747,2.879,2.8799,2.8785,2.8818,2.8801,2.8837,2.8826,2.8896,2.8883,2.8892,2.8887,2.8939,2.8933,2.9115,2.9136,2.8975,2.8977,2.8978,0,2.8724,2.8765,2.8766,2.8786,2.8791,2.8823,2.884,2.8815,2.8834,2.8848,2.8879,2.8909,2.8931,2.8986,2.8979,2.9005,2.899,2.9052,2.8994,2.8998,2.8987,2.8984,2.8987,2.9063,2.9065,2.9067,2.9068,0,2.8874,2.8863,2.8889,2.8912,2.8933,2.895,2.8964,2.8982,2.8957,2.898,2.9013,2.903,2.9065,2.9094,2.9117,2.9119,2.9089,2.9087,2.9099,2.9105,2.9108,2.9104,2.8921,2.9082,2.9081,2.9079,2.9079,2.9078,2.8985,2.9018,2.9023,2.9052,2.906,2.9073,2.9102,2.9096,2.9123,2.9148,2.9132,2.917,2.9178,2.9204,2.9211,2.924,2.9215,2.9235,2.9239,2.9243,2.9249,2.9105,2.9244,2.9244,2.9244,2.9243,2.9243,0,2.913,2.9131,2.9158,2.9178,2.92,2.917,2.9183,2.9204,2.9237,2.9247,2.9269,2.9306,2.9334,2.9328,2.9353,2.9378,2.9364,2.9385,2.9381,2.9382,2.9271,2.9256,2.9395,2.9395,2.9395,2.9395,2.9395,2.9395,2.9208,2.9261,2.9251,2.9307,2.9307,2.9343,2.9353,2.9365,2.9371,2.9414,2.9436,2.9432,2.9435,2.946,2.9484,2.9482,2.9491,2.9517,2.9509,2.9405,2.939,2.9376,2.9361,2.952,2.952,2.9617,2.9618,2.9618]},{"header":{"parameterUnit":"m.s-1","parameterCategory":1,"la1":30.2991,"la2":30.254,"lo1":-89.0895,"lo2":-89.0444,"dy":0.0017,"dx":0.0017,"nx":28,"ny":28,"refTime":"2025-06-20T09:00:00:Z","depth":0,"parameterNumber":3,"parameterNumberName":"V-component_of_WINDS"},"data":[0,0,0,0,0,0,0,0,0,0,0,0,0,0,0,0,0,0,0,0,0,0,0,0,0,0,0,0,0,0,0,0,0,0,0,0,0,0,0,0,0,0,0,0,0,0,0,0,0,0,0,0,0,0,0,0,0,0,2.163,2.1631,0,2.1735,2.1736,2.1737,2.1761,2.1761,2.176,2.1759,2.1864,2.1867,2.1871,0,0,0,0,0,0,0,0,0,0,0,0,0,2.1446,2.1449,2.163,2.1631,2.1632,2.1735,2.1736,2.1738,2.1761,2.176,2.176,2.1759,2.1863,2.1867,2.1871,0,0,0,0,0,0,0,0,0,0,0,0,0,2.1536,2.145,2.163,2.1657,2.166,2.1735,2.1736,2.1738,2.1762,2.176,2.1759,2.1758,2.1862,2.1867,2.1872,2.1926,0,0,2.1888,2.189,0,0,0,0,0,0,0,0,2.1531,2.1543,2.1651,2.1655,2.1659,2.1734,2.171,2.1801,2.1762,2.1723,2.1759,2.1758,2.1821,2.183,2.1852,2.1931,2.1935,2.1888,2.1891,2.1894,2.1895,0,0,0,0,0,0,0,2.1525,2.1538,2.1671,2.1653,2.1658,2.1662,2.1674,2.1727,2.1777,2.1726,2.1728,2.1741,2.1823,2.1847,2.1855,2.1937,2.1888,2.1893,2.1896,2.1898,2.2063,2.2064,0,0,0,0,0,0,2.1514,2.1533,2.1668,2.1675,2.1591,2.1667,2.168,2.1711,2.1777,2.1785,2.1741,2.1741,2.1838,2.1848,2.1858,2.1925,2.1893,2.1898,2.1901,2.2062,2.2064,2.2065,0,0,0,0,0,0,2.151,2.1526,2.1664,2.1604,2.1622,2.1671,2.1706,2.1714,2.1737,2.1788,2.1797,2.1757,2.1838,2.1851,2.1909,2.1929,2.1901,2.1905,2.206,2.2062,2.2064,2.2059,0,0,0,0,0,0,2.1505,2.1524,2.1546,2.1605,2.1625,2.1713,2.1707,2.1716,2.1746,2.1747,2.1804,2.1813,2.1838,2.1901,2.1914,2.1936,2.191,2.2059,2.2061,2.2064,2.2057,2.206,2.2063,0,0,0,0,0,2.1498,2.154,2.1547,2.1563,2.1654,2.1715,2.1726,2.1755,2.1748,2.177,2.1802,2.1811,2.1925,2.1906,2.1921,2.1945,2.2058,2.2061,2.2063,2.2056,2.206,2.2063,0,0,0,0,0,0,2.1483,2.1549,2.1557,2.162,2.1661,2.1719,2.1747,2.1758,2.1803,2.1801,2.1835,2.1847,2.1902,2.193,2.1908,2.2,2.1991,2.1997,2.198,2.1984,2.1987,2.1979,2.1914,0,0,0,0,0,2.1487,2.1531,2.1586,2.1636,2.1657,2.1698,2.1726,2.1744,2.1789,2.1806,2.1843,2.1884,2.1929,2.1958,2.2002,2.2061,2.2073,2.2085,2.2088,2.2089,2.2094,2.2126,2.2131,2.2074,2.2074,2.2074,0,0,2.1495,2.1537,2.1563,2.1634,2.1669,2.1713,2.1713,2.176,2.1793,2.1813,2.187,2.1898,2.1946,2.2004,2.2032,2.2029,2.2112,2.2093,2.2094,2.2098,2.2129,2.2134,2.2139,2.2076,2.2076,2.2076,0,0,2.1533,2.157,2.1615,2.1649,2.1702,2.1729,2.1739,2.1795,2.1814,2.1872,2.1887,2.1926,2.2003,2.2037,2.2064,2.2113,2.2122,2.2127,2.214,2.2171,2.2175,2.2179,2.2196,2.2201,2.2131,2.2131,2.2131,0,2.1537,2.1606,2.1636,2.1683,2.1713,2.1734,2.1778,2.181,2.1874,2.1893,2.1889,2.1986,2.202,2.2085,2.2097,2.2119,2.2131,2.212,2.2172,2.2177,2.2181,2.2197,2.2203,2.2131,2.2131,2.2131,2.2131,0,2.1607,2.1654,2.1684,2.1745,2.1779,2.1824,2.186,2.189,2.1906,2.1933,2.199,2.2032,2.2084,2.2101,2.2117,2.2168,2.2164,2.2166,2.2157,2.2186,2.2201,2.2208,2.2131,2.2131,2.2131,2.2131,0,0,2.1639,2.1716,2.1726,2.1754,2.1812,2.1849,2.1894,2.1946,2.197,2.2013,2.2051,2.2115,2.2117,2.2147,2.2166,2.2193,2.2228,2.2191,2.2193,2.2195,2.2286,2.2283,2.229,2.2234,2.2236,2.2237,2.2281,0,2.1683,2.1766,2.1794,2.1863,2.1905,2.1925,2.1964,2.2004,2.203,2.2069,2.2097,2.2142,2.2141,2.2159,2.2187,2.2218,2.2246,2.2215,2.2268,2.227,2.2255,2.2299,2.2297,2.2337,2.2287,2.2288,2.2289,0,2.1746,2.179,2.1863,2.1915,2.1934,2.1969,2.2017,2.2055,2.21,2.2117,2.215,2.2167,2.2214,2.2203,2.2267,2.2245,2.2268,2.2286,2.2289,2.2294,2.2281,2.2304,2.2351,2.2356,2.2299,2.2298,2.2298,0,2.1761,2.1838,2.1891,2.1914,2.1976,2.2,2.2027,2.207,2.2099,2.2142,2.216,2.2207,2.2233,2.2268,2.2297,2.2286,2.2357,2.2349,2.2371,2.2371,2.2385,2.2384,2.2435,2.2402,2.2401,2.2401,2.2401,0,2.1807,2.185,2.1898,2.1931,2.1979,2.201,2.2057,2.2085,2.2123,2.216,2.218,2.2214,2.225,2.2289,2.2311,2.236,2.2371,2.2385,2.2391,2.2383,2.2381,2.2399,2.2396,2.2403,2.2403,2.2402,2.2402,0,2.1831,2.1865,2.1924,2.1978,2.1992,2.2025,2.2071,2.2103,2.2129,2.2176,2.2188,2.223,2.2276,2.2308,2.2368,2.2383,2.2435,2.244,2.242,2.2422,2.2442,2.244,2.2506,2.2516,2.2476,2.2477,2.2477,0,2.1858,2.1892,2.1949,2.1976,2.2003,2.2045,2.2075,2.2107,2.2136,2.2188,2.2213,2.2261,2.2301,2.2373,2.2408,2.2453,2.2459,2.2479,2.2466,2.2457,2.2458,2.2455,2.2458,2.2481,2.2481,2.2481,2.2481,0,2.1902,2.1917,2.1959,2.2007,2.2041,2.208,2.2119,2.214,2.2178,2.221,2.2258,2.2288,2.2349,2.2395,2.2443,2.247,2.2481,2.2485,2.2493,2.2485,2.2471,2.2478,2.2424,2.2483,2.2483,2.2483,2.2483,2.2483,2.1928,2.1958,2.2003,2.2048,2.2081,2.2117,2.2149,2.2179,2.222,2.2272,2.2288,2.2337,2.2379,2.2445,2.2472,2.2509,2.2508,2.2519,2.2522,2.2524,2.2523,2.2466,2.2518,2.2518,2.2518,2.2518,2.2518,0,2.1971,2.2001,2.2043,2.2097,2.2132,2.2141,2.2184,2.2213,2.2256,2.2295,2.2334,2.2387,2.2432,2.247,2.2516,2.2539,2.2545,2.255,2.2548,2.2554,2.2522,2.2511,2.2544,2.2544,2.2544,2.2544,2.2544,2.2544,2.1998,2.2049,2.2069,2.2136,2.2165,2.2214,2.2238,2.227,2.2301,2.2361,2.2398,2.2423,2.2461,2.2509,2.255,2.256,2.2576,2.2579,2.2589,2.2559,2.2556,2.2553,2.2543,2.2582,2.2582,2.2618,2.2618,2.2618]}]]